Metropolis, IL

9:58 PM CDT on July 20, 2017 (GMT -0500)
Metropolis

Weather History for KM30 - May, 2014

Change the Weather History Date:

Thursday, May 1, 2014

  Actual Average (KPAH) Record (KPAH)
Temperature  
Mean Temperature 52 °F -  
Max Temperature 61 °F 72 °F 90 °F (1951)
Min Temperature 44 °F 51 °F 34 °F (1963)
Degree Days  
Heating Degree Days 12    
Growing Degree Days 2 (Base 50)    
Moisture  
Dew Point 37 °F    
Average Humidity 57    
Maximum Humidity 82    
Minimum Humidity 34    
Precipitation  
Precipitation 0.00 in - - ()
Sea Level Pressure  
Sea Level Pressure 29.96 in    
Wind  
Wind Speed 6 mph (SW)    
Max Wind Speed 16 mph    
Max Gust Speed 25 mph    
Visibility 10 miles    
Events      
Averages and records for this station are not official NWS values.
T = Trace of Precipitation, MM = Missing Value Source: NWS Daily Summary

Daily Weather History Graph

Daily Weather History Graph

Search for Another Location

Airport or City:

Trip Planner

Search our weather history database for the weather conditions in past years. The results will help you decide how hot, cold, wet, or windy it might be!

Date:

Astronomy

May. 01, 2014 Rise Set
Actual Time 6:00 AM CDT 7:44 PM CDT
Civil Twilight 5:32 AM CDT 8:12 PM CDT
Nautical Twilight 4:58 AM CDT 8:46 PM CDT
Astronomical Twilight 4:22 AM CDT 9:22 PM CDT
Moon 7:49 AM CDT (5/1) 10:16 PM CDT (5/1)
Length of Visible Light 14h 40m
Length of Day
13h 44m
Waxing Crescent, 7% of the Moon is Illuminated
May 1
Waxing Crescent
May 6
First Quarter
May 14
Full
May 21
Last Quarter
May 28
New

Hourly Weather History & Observations

Time (CDT) Temp. Windchill Dew Point Humidity Pressure Visibility Wind Dir Wind Speed Gust Speed Precip Events Conditions
12:15 AM 49.6 °F - 40.5 °F 71% 29.96 in 10.0 mi SSW 5.8 mph - N/A   Overcast
12:35 AM 50.0 °F - 40.8 °F 71% 29.96 in 10.0 mi SSW 4.6 mph - N/A   Overcast
12:55 AM 49.8 °F - 41.0 °F 72% 29.96 in 10.0 mi SW 5.8 mph - N/A   Overcast
1:15 AM 50.0 °F - 41.0 °F 71% 29.96 in 10.0 mi SW 6.9 mph - N/A   Overcast
1:35 AM 50.0 °F - 41.2 °F 72% 29.95 in 10.0 mi WSW 4.6 mph - N/A   Overcast
2:40 AM - - - N/A% 29.94 in - SW 4.6 mph - N/A   Unknown
2:55 AM 47.5 °F - 40.3 °F 76% 29.94 in - SW 4.6 mph - N/A   Unknown
3:15 AM 47.5 °F - 40.5 °F 77% 29.94 in - SW 5.8 mph - N/A   Clear
3:35 AM 45.7 °F 44.4 °F 39.9 °F 80% 29.94 in - SSW 3.5 mph - N/A   Clear
3:55 AM 45.7 °F - 40.5 °F 82% 29.94 in - Calm Calm - N/A   Clear
4:15 AM 45.5 °F 44.2 °F 39.9 °F 81% 29.94 in - South 3.5 mph - N/A   Clear
4:35 AM 46.2 °F 45.0 °F 39.9 °F 79% 29.95 in - South 3.5 mph - N/A   Clear
4:55 AM 45.3 °F 43.0 °F 39.4 °F 80% 29.94 in - SSW 4.6 mph - N/A   Clear
5:15 AM 45.0 °F 43.5 °F 39.2 °F 80% 29.95 in - South 3.5 mph - N/A   Clear
5:35 AM 44.8 °F - 39.4 °F 81% 29.95 in - Calm Calm - N/A   Clear
5:55 AM 44.6 °F 43.1 °F 38.8 °F 80% 29.95 in - SW 3.5 mph - N/A   Clear
6:15 AM 45.1 °F 42.8 °F 38.7 °F 78% 29.95 in - SW 4.6 mph - N/A   Clear
6:35 AM 45.3 °F 42.3 °F 39.2 °F 79% 29.96 in - SW 5.8 mph - N/A   Clear
6:55 AM 46.4 °F 42.9 °F 39.2 °F 76% 29.96 in - SW 6.9 mph - N/A   Clear
7:15 AM 47.8 °F - 39.2 °F 72% 29.96 in - SW 8.1 mph - N/A   Clear
7:35 AM 48.7 °F - 38.8 °F 69% 29.97 in - SW 8.1 mph - N/A   Clear
7:55 AM 50.0 °F - 39.0 °F 66% 29.97 in - WSW 6.9 mph - N/A   Clear
8:15 AM 50.4 °F - 37.9 °F 62% 29.97 in - WSW 9.2 mph - N/A   Clear
8:35 AM 51.6 °F - 38.3 °F 60% 29.97 in - WSW 8.1 mph - N/A   Clear
9:15 AM 53.4 °F - 37.9 °F 56% 29.97 in - SW 8.1 mph - N/A   Clear
10:15 AM 56.7 °F - 35.6 °F 45% 29.96 in - WSW 11.5 mph - N/A   Clear
10:35 AM 57.2 °F - 34.0 °F 42% 29.96 in - WSW 16.1 mph 23.0 mph N/A   Clear
10:55 AM 58.1 °F - 35.4 °F 43% 29.96 in - West 11.5 mph 17.3 mph N/A   Clear
11:15 AM 57.2 °F - 32.0 °F 38% 29.96 in - West 10.4 mph 20.7 mph N/A   Scattered Clouds
11:35 AM 58.6 °F - 32.7 °F 38% 29.96 in - SW 12.7 mph 25.3 mph N/A   Mostly Cloudy
11:55 AM 59.4 °F - 33.1 °F 37% 29.95 in - WSW 13.8 mph 21.9 mph N/A   Mostly Cloudy
12:15 PM 58.3 °F - 33.6 °F 39% 29.94 in - WSW 12.7 mph 19.6 mph N/A   Mostly Cloudy
12:35 PM 58.6 °F - 32.9 °F 38% 29.95 in - SW 11.5 mph 19.6 mph N/A   Mostly Cloudy
1:15 PM 59.7 °F - 33.1 °F 37% 29.95 in - WSW 16.1 mph 20.7 mph N/A   Overcast
1:35 PM 59.7 °F - 33.4 °F 37% 29.95 in - WSW 12.7 mph 19.6 mph N/A   Overcast
1:55 PM 59.7 °F - 33.6 °F 37% 29.95 in - SW 15.0 mph 20.7 mph N/A   Overcast
2:15 PM 61.0 °F - 35.1 °F 38% 29.95 in - SSW 13.8 mph 21.9 mph N/A   Overcast
2:35 PM 59.9 °F - 34.5 °F 39% 29.95 in - SW 12.7 mph 21.9 mph N/A   Overcast
3:15 PM 59.7 °F - 34.7 °F 39% 29.95 in - SW 15.0 mph 18.4 mph N/A   Overcast
3:35 PM 60.3 °F - 35.2 °F 39% 29.94 in - SW 11.5 mph 20.7 mph N/A   Overcast
3:55 PM 60.1 °F - 34.9 °F 39% 29.94 in - WSW 11.5 mph 18.4 mph N/A   Mostly Cloudy
4:15 PM 60.1 °F - 33.8 °F 37% 29.94 in - WSW 12.7 mph 18.4 mph N/A   Mostly Cloudy
5:15 PM 59.9 °F - 35.8 °F 41% 29.94 in - WSW 6.9 mph - N/A   Overcast
5:35 PM 59.9 °F - 34.7 °F 39% 29.94 in - WSW 6.9 mph - N/A   Overcast
5:55 PM 59.9 °F - 36.0 °F 41% 29.94 in - WSW 8.1 mph - N/A   Mostly Cloudy
6:15 PM 60.8 °F - 33.3 °F 36% 29.94 in - West 10.4 mph - N/A   Overcast
6:35 PM 60.8 °F - 32.4 °F 34% 29.94 in - West 5.8 mph 16.1 mph N/A   Mostly Cloudy
6:55 PM 59.4 °F - 32.0 °F 36% 29.95 in - West 6.9 mph - N/A   Scattered Clouds
7:15 PM 58.5 °F - 33.4 °F 39% 29.95 in - Calm Calm - N/A   Mostly Cloudy
7:35 PM 58.1 °F - 34.9 °F 42% 29.96 in - WSW 3.5 mph - N/A   Overcast
7:55 PM 57.7 °F - 35.2 °F 43% 29.96 in - Calm Calm - N/A   Overcast
8:15 PM 57.4 °F - 36.0 °F 45% 29.96 in - Calm Calm - N/A   Overcast
8:35 PM 56.3 °F - 38.7 °F 52% 29.97 in - Calm Calm - N/A   Overcast
8:55 PM 55.6 °F - 39.9 °F 56% 29.97 in - Calm Calm - N/A   Overcast
9:15 PM 54.5 °F - 41.5 °F 62% 29.97 in - Calm Calm - N/A   Overcast
9:35 PM 54.3 °F - 41.4 °F 62% 29.98 in - Calm Calm - N/A   Overcast
9:55 PM 52.2 °F - 40.3 °F 64% 29.98 in - Calm Calm - N/A   Mostly Cloudy
10:15 PM 51.1 °F - 41.7 °F 70% 29.98 in - Calm Calm - N/A   Mostly Cloudy
10:35 PM 51.1 °F - 41.5 °F 70% 29.97 in - Calm Calm - N/A   Overcast
10:55 PM 50.9 °F - 40.5 °F 67% 29.97 in - Calm Calm - N/A   Overcast
11:15 PM 50.2 °F - 42.1 °F 74% 29.97 in - Calm Calm - N/A   Overcast
11:35 PM 49.1 °F - 42.8 °F 79% 29.97 in - Calm Calm - N/A   Overcast
11:55 PM 49.1 °F - 42.3 °F 77% 29.97 in - Calm Calm - N/A   Overcast